SWA2794 KDCA-KPVD

Flight info

Callsign SWA2794
Flight time 0h 58m
Altitude 29000
Route SOOKI6 SWANN BROSS Q419 RBV Q430 CREEL ORCHA JORDN JORDN2
Aircraft B737/M-SADE2E3GIJ4RWZ/LB1D1

Departure

Time 2026-04-23 04:03
Airport Ronald Reagan Washington National Airport (KDCA)

Arrival

Time 2026-04-23 05:01
Airport Rhode Island T. F. Green International Airport (KPVD)
Time Latitude Longitude Altitude Speed Heading
2026-04-23 03:40 38.84628 -77.04290 -60 ft 0 kts 28°
2026-04-23 03:53 38.84627 -77.04290 24 ft 1 kts 28°
2026-04-23 03:54 38.84605 -77.04305 27 ft 4 kts 28°
2026-04-23 03:54 38.84587 -77.04319 25 ft 4 kts 52°
2026-04-23 03:54 38.84582 -77.04344 25 ft 4 kts 121°
2026-04-23 03:54 38.84600 -77.04368 28 ft 4 kts 139°
2026-04-23 03:55 38.84620 -77.04390 26 ft 4 kts 139°
2026-04-23 03:55 38.84639 -77.04411 28 ft 4 kts 131°
2026-04-23 03:55 38.84650 -77.04438 29 ft 4 kts 79°
2026-04-23 03:55 38.84639 -77.04466 29 ft 4 kts 52°
2026-04-23 03:56 38.84631 -77.04478 27 ft 0 kts 52°
2026-04-23 03:58 38.84636 -77.04470 26 ft 3 kts 56°
2026-04-23 03:58 38.84641 -77.04427 24 ft 7 kts 105°
2026-04-23 03:58 38.84599 -77.04367 24 ft 11 kts 137°
2026-04-23 03:59 38.84566 -77.04264 24 ft 15 kts 84°
2026-04-23 03:59 38.84590 -77.04119 24 ft 18 kts 77°
2026-04-23 03:59 38.84687 -77.04005 24 ft 21 kts 25°
2026-04-23 03:59 38.84837 -77.03944 26 ft 24 kts 356°
2026-04-23 04:00 38.85005 -77.03962 25 ft 24 kts 355°
2026-04-23 04:00 38.85164 -77.03979 25 ft 23 kts 357°
2026-04-23 04:00 38.85318 -77.03994 24 ft 22 kts 355°
2026-04-23 04:00 38.85469 -77.04009 24 ft 21 kts 354°
2026-04-23 04:01 38.85613 -77.04039 29 ft 21 kts 355°
2026-04-23 04:01 38.85754 -77.04053 28 ft 20 kts 355°
2026-04-23 04:01 38.85891 -77.04063 27 ft 19 kts 11°
2026-04-23 04:01 38.85994 -77.03964 28 ft 19 kts 21°
2026-04-23 04:02 38.86084 -77.03883 25 ft 5 kts 90°
2026-04-23 04:02 38.86084 -77.03881 25 ft 0 kts 101°
2026-04-23 04:02 38.86044 -77.03865 28 ft 23 kts 174°
2026-04-23 04:02 38.85599 -77.03821 27 ft 104 kts 175°
2026-04-23 04:03 38.84648 -77.03715 47 ft 166 kts 174°
2026-04-23 04:03 38.83503 -77.03607 843 ft 157 kts 180°
2026-04-23 04:03 38.82377 -77.03423 1426 ft 175 kts 175°
2026-04-23 04:03 38.81071 -77.03138 1741 ft 205 kts 175°
2026-04-23 04:04 38.79568 -77.02804 2025 ft 233 kts 174°
2026-04-23 04:04 38.77923 -77.02437 2736 ft 244 kts 173°
2026-04-23 04:04 38.76338 -77.01578 3706 ft 256 kts 143°
2026-04-23 04:04 38.75267 -76.99698 4444 ft 278 kts 110°
2026-04-23 04:05 38.75039 -76.97181 5180 ft 291 kts 89°
2026-04-23 04:05 38.75082 -76.94550 6061 ft 299 kts 84°
2026-04-23 04:05 38.75723 -76.92009 6835 ft 304 kts 51°
2026-04-23 04:05 38.77150 -76.90082 7868 ft 296 kts 31°
2026-04-23 04:06 38.78889 -76.88674 8836 ft 298 kts 25°
2026-04-23 04:06 38.80654 -76.87228 9738 ft 309 kts 39°
2026-04-23 04:06 38.82015 -76.85041 10556 ft 320 kts 52°
2026-04-23 04:06 38.83319 -76.82583 10866 ft 347 kts 53°
2026-04-23 04:07 38.84712 -76.79908 11073 ft 373 kts 54°
2026-04-23 04:07 38.86166 -76.77123 11622 ft 384 kts 53°
2026-04-23 04:07 38.87670 -76.74263 12439 ft 388 kts 53°
2026-04-23 04:07 38.89214 -76.71352 13381 ft 390 kts 53°
2026-04-23 04:08 38.90735 -76.68503 14225 ft 394 kts 53°
2026-04-23 04:08 38.92295 -76.65594 15006 ft 397 kts 52°
2026-04-23 04:08 38.93870 -76.62660 15833 ft 400 kts 52°
2026-04-23 04:08 38.95454 -76.59711 16617 ft 403 kts 51°
2026-04-23 04:09 38.97056 -76.56728 17393 ft 407 kts 51°
2026-04-23 04:09 38.98672 -76.53715 18181 ft 411 kts 51°
2026-04-23 04:09 39.00297 -76.50682 18877 ft 414 kts 51°
2026-04-23 04:09 39.01941 -76.47611 19482 ft 420 kts 51°
2026-04-23 04:10 39.03607 -76.44496 20040 ft 427 kts 51°
2026-04-23 04:10 39.05295 -76.41333 20721 ft 430 kts 51°
2026-04-23 04:10 39.06990 -76.38154 21423 ft 432 kts 51°
2026-04-23 04:10 39.08697 -76.34949 22062 ft 436 kts 51°
2026-04-23 04:11 39.10422 -76.31710 22673 ft 441 kts 51°
2026-04-23 04:11 39.12161 -76.28442 23284 ft 444 kts 51°
2026-04-23 04:11 39.13835 -76.25058 23840 ft 452 kts 58°
2026-04-23 04:11 39.15104 -76.21310 24327 ft 461 kts 67°
2026-04-23 04:12 39.15901 -76.17282 24833 ft 469 kts 77°
2026-04-23 04:12 39.16377 -76.13106 25342 ft 473 kts 79°
2026-04-23 04:12 39.16796 -76.08891 25842 ft 476 kts 79°
2026-04-23 04:12 39.17225 -76.04653 26296 ft 479 kts 78°
2026-04-23 04:13 39.17691 -76.00392 26731 ft 482 kts 78°
2026-04-23 04:13 39.18182 -75.96102 27158 ft 486 kts 78°
2026-04-23 04:13 39.18894 -75.91892 27516 ft 485 kts 66°
2026-04-23 04:13 39.20309 -75.88005 28060 ft 475 kts 53°
2026-04-23 04:14 39.22232 -75.84622 28758 ft 462 kts 41°
2026-04-23 04:14 39.24560 -75.81827 29135 ft 456 kts 33°
2026-04-23 04:14 39.29462 -75.76625 29120 ft 452 kts 32°
2026-04-23 04:15 39.34263 -75.71473 29126 ft 450 kts 33°
2026-04-23 04:16 39.41505 -75.63521 29134 ft 465 kts 34°
2026-04-23 04:16 39.46478 -75.58041 29113 ft 470 kts 34°
2026-04-23 04:17 39.51452 -75.52571 29127 ft 468 kts 34°
2026-04-23 04:17 39.56384 -75.47140 29144 ft 468 kts 34°
2026-04-23 04:18 39.61349 -75.41661 29148 ft 469 kts 34°
2026-04-23 04:18 39.66316 -75.36173 29138 ft 469 kts 34°
2026-04-23 04:19 39.71283 -75.30677 29136 ft 469 kts 34°
2026-04-23 04:19 39.76249 -75.25171 29133 ft 469 kts 34°
2026-04-23 04:20 39.81050 -75.19391 29141 ft 475 kts 42°
2026-04-23 04:20 39.85362 -75.12845 29136 ft 477 kts 44°
2026-04-23 04:21 39.89625 -75.06305 29151 ft 476 kts 43°
2026-04-23 04:21 39.93968 -74.99793 29162 ft 476 kts 43°
2026-04-23 04:22 39.98213 -74.93138 29138 ft 481 kts 49°
2026-04-23 04:22 40.01936 -74.85835 29138 ft 485 kts 52°
2026-04-23 04:23 40.05584 -74.78431 29133 ft 484 kts 51°
2026-04-23 04:23 40.09300 -74.71042 29144 ft 483 kts 51°
2026-04-23 04:24 40.12994 -74.63764 29163 ft 483 kts 51°
2026-04-23 04:24 40.16705 -74.56434 29151 ft 483 kts 51°
2026-04-23 04:25 40.20292 -74.48976 29157 ft 488 kts 58°
2026-04-23 04:25 40.22710 -74.40585 29162 ft 495 kts 67°
2026-04-23 04:26 40.24857 -74.32018 29175 ft 495 kts 67°
2026-04-23 04:26 40.27053 -74.23465 29174 ft 495 kts 66°
2026-04-23 04:27 40.29274 -74.14975 29171 ft 498 kts 66°
2026-04-23 04:27 40.31535 -74.06327 29149 ft 498 kts 66°
2026-04-23 04:28 40.34856 -73.93532 29159 ft 495 kts 66°
2026-04-23 04:28 40.37064 -73.85005 29156 ft 493 kts 66°
2026-04-23 04:29 40.39269 -73.76471 29170 ft 493 kts 66°
2026-04-23 04:29 40.41465 -73.67935 29182 ft 494 kts 66°
2026-04-23 04:30 40.43658 -73.59382 29189 ft 495 kts 66°
2026-04-23 04:30 40.46160 -73.51009 29190 ft 489 kts 58°
2026-04-23 04:31 40.49235 -73.43121 29189 ft 487 kts 57°
2026-04-23 04:31 40.52371 -73.35224 29192 ft 488 kts 57°
2026-04-23 04:32 40.55454 -73.27269 29216 ft 489 kts 58°
2026-04-23 04:32 40.58501 -73.19278 29196 ft 489 kts 58°
2026-04-23 04:33 40.61483 -73.11395 29173 ft 464 kts 58°
2026-04-23 04:33 40.62420 -73.08905 29152 ft 453 kts 58°
2026-04-23 04:33 40.64279 -73.03981 28554 ft 444 kts 57°
2026-04-23 04:34 40.65187 -73.01580 28203 ft 441 kts 57°
2026-04-23 04:34 40.66546 -72.97992 27720 ft 435 kts 57°
2026-04-23 04:34 40.67887 -72.94447 27217 ft 430 kts 57°
2026-04-23 04:34 40.69213 -72.90936 26704 ft 426 kts 58°
2026-04-23 04:35 40.70527 -72.87452 26214 ft 422 kts 58°
2026-04-23 04:35 40.71830 -72.83993 25698 ft 419 kts 58°
2026-04-23 04:35 40.73120 -72.80562 25202 ft 416 kts 58°
2026-04-23 04:35 40.74399 -72.77156 24701 ft 413 kts 58°
2026-04-23 04:36 40.75668 -72.73770 24206 ft 410 kts 58°
2026-04-23 04:36 40.76927 -72.70408 23690 ft 408 kts 58°
2026-04-23 04:36 40.78180 -72.67060 23111 ft 405 kts 58°
2026-04-23 04:36 40.79420 -72.63739 22595 ft 401 kts 58°
2026-04-23 04:37 40.80645 -72.60453 22098 ft 397 kts 58°
2026-04-23 04:37 40.81860 -72.57193 21596 ft 394 kts 59°
2026-04-23 04:37 40.83048 -72.54003 21112 ft 391 kts 59°
2026-04-23 04:37 40.84239 -72.50800 20625 ft 387 kts 59°
2026-04-23 04:38 40.85421 -72.47619 20166 ft 384 kts 59°
2026-04-23 04:38 40.86592 -72.44463 19677 ft 381 kts 59°
2026-04-23 04:38 40.87755 -72.41325 19202 ft 379 kts 59°
2026-04-23 04:38 40.88910 -72.38208 18719 ft 376 kts 59°
2026-04-23 04:39 40.90056 -72.35112 18210 ft 374 kts 59°
2026-04-23 04:39 40.91194 -72.32031 17692 ft 371 kts 59°
2026-04-23 04:39 40.92311 -72.28968 17205 ft 369 kts 60°
2026-04-23 04:39 40.93404 -72.25893 16717 ft 367 kts 61°
2026-04-23 04:40 40.94480 -72.22838 16236 ft 364 kts 61°
2026-04-23 04:40 40.95544 -72.19811 15760 ft 361 kts 61°
2026-04-23 04:40 40.96601 -72.16810 15307 ft 359 kts 61°
2026-04-23 04:40 40.97660 -72.13807 14775 ft 359 kts 61°
2026-04-23 04:41 40.98699 -72.10857 14304 ft 357 kts 61°
2026-04-23 04:41 40.99747 -72.07882 13832 ft 355 kts 62°
2026-04-23 04:41 41.00789 -72.04922 13293 ft 354 kts 62°
2026-04-23 04:41 41.01823 -72.01984 12806 ft 351 kts 62°
2026-04-23 04:42 41.02850 -71.99062 12329 ft 348 kts 62°
2026-04-23 04:42 41.03867 -71.96164 11870 ft 345 kts 62°
2026-04-23 04:42 41.04874 -71.93291 11409 ft 343 kts 62°
2026-04-23 04:42 41.05991 -71.90542 11058 ft 333 kts 51°
2026-04-23 04:43 41.07402 -71.88183 10894 ft 323 kts 46°
2026-04-23 04:43 41.08854 -71.85925 10733 ft 321 kts 46°
2026-04-23 04:43 41.10297 -71.83704 10554 ft 323 kts 46°
2026-04-23 04:43 41.11756 -71.81443 10372 ft 321 kts 46°
2026-04-23 04:44 41.13176 -71.79217 10173 ft 310 kts 46°
2026-04-23 04:44 41.14541 -71.77061 9972 ft 300 kts 47°
2026-04-23 04:44 41.15855 -71.74973 9807 ft 290 kts 47°
2026-04-23 04:44 41.17128 -71.72946 9642 ft 283 kts 46°
2026-04-23 04:45 41.18386 -71.70939 9491 ft 283 kts 47°
2026-04-23 04:45 41.19650 -71.68922 9341 ft 285 kts 47°
2026-04-23 04:45 41.20924 -71.66887 9182 ft 288 kts 47°
2026-04-23 04:45 41.22204 -71.64838 9015 ft 289 kts 47°
2026-04-23 04:46 41.23488 -71.62780 8846 ft 289 kts 47°
2026-04-23 04:46 41.24769 -71.60723 8696 ft 289 kts 47°
2026-04-23 04:46 41.26050 -71.58666 8531 ft 289 kts 47°
2026-04-23 04:46 41.27329 -71.56609 8364 ft 288 kts 47°
2026-04-23 04:47 41.28606 -71.54555 8201 ft 288 kts 47°
2026-04-23 04:47 41.29881 -71.52503 8031 ft 287 kts 47°
2026-04-23 04:47 41.31153 -71.50453 7877 ft 287 kts 47°
2026-04-23 04:47 41.32422 -71.48410 7713 ft 286 kts 47°
2026-04-23 04:48 41.33690 -71.46365 7553 ft 286 kts 47°
2026-04-23 04:48 41.34955 -71.44325 7397 ft 286 kts 47°
2026-04-23 04:48 41.36221 -71.42285 7239 ft 285 kts 45°
2026-04-23 04:48 41.37728 -71.40715 7067 ft 275 kts 18°
2026-04-23 04:49 41.39541 -71.40255 6950 ft 260 kts 349°
2026-04-23 04:49 41.41271 -71.40760 6846 ft 252 kts 338°
2026-04-23 04:49 41.42943 -71.41453 6706 ft 251 kts 336°
2026-04-23 04:49 41.44605 -71.42169 6566 ft 251 kts 336°
2026-04-23 04:50 41.46251 -71.42971 6391 ft 254 kts 332°
2026-04-23 04:50 41.47903 -71.43901 6247 ft 262 kts 331°
2026-04-23 04:50 41.49600 -71.44872 6093 ft 268 kts 332°
2026-04-23 04:50 41.51325 -71.45853 5934 ft 270 kts 332°
2026-04-23 04:51 41.53049 -71.46825 5769 ft 268 kts 332°
2026-04-23 04:51 41.54746 -71.47771 5596 ft 261 kts 333°
2026-04-23 04:51 41.56404 -71.48691 5453 ft 257 kts 332°
2026-04-23 04:51 41.58059 -71.49610 5296 ft 258 kts 333°
2026-04-23 04:52 41.59720 -71.50535 5176 ft 260 kts 333°
2026-04-23 04:52 41.61398 -71.51469 5039 ft 264 kts 333°
2026-04-23 04:52 41.63103 -71.52414 4871 ft 266 kts 333°
2026-04-23 04:52 41.64794 -71.53350 4714 ft 260 kts 333°
2026-04-23 04:53 41.66445 -71.54263 4555 ft 253 kts 333°
2026-04-23 04:53 41.68051 -71.55152 4407 ft 247 kts 333°
2026-04-23 04:53 41.69620 -71.56023 4267 ft 242 kts 333°
2026-04-23 04:53 41.71158 -71.56883 4130 ft 237 kts 331°
2026-04-23 04:54 41.72670 -71.57740 3994 ft 235 kts 332°
2026-04-23 04:54 41.74175 -71.58570 3871 ft 233 kts 333°
2026-04-23 04:54 41.75674 -71.59396 3744 ft 233 kts 333°
2026-04-23 04:54 41.77174 -71.60226 3605 ft 233 kts 333°
2026-04-23 04:55 41.78659 -71.61051 3486 ft 235 kts 333°
2026-04-23 04:55 41.80174 -71.61894 3361 ft 236 kts 333°
2026-04-23 04:55 41.81689 -71.62733 3214 ft 235 kts 336°
2026-04-23 04:55 41.83295 -71.62982 3035 ft 233 kts 13°
2026-04-23 04:56 41.84661 -71.62017 2969 ft 216 kts 48°
2026-04-23 04:56 41.85494 -71.60453 2852 ft 200 kts 69°
2026-04-23 04:56 41.85986 -71.58748 2752 ft 192 kts 87°
2026-04-23 04:56 41.85730 -71.57127 2619 ft 174 kts 134°
2026-04-23 04:57 41.84912 -71.55970 2527 ft 172 kts 140°
2026-04-23 04:57 41.84073 -71.54846 2396 ft 168 kts 141°
2026-04-23 04:57 41.83191 -71.53833 2307 ft 166 kts 146°
2026-04-23 04:57 41.82275 -71.52859 2223 ft 168 kts 146°
2026-04-23 04:58 41.81352 -71.51884 2113 ft 168 kts 146°
2026-04-23 04:58 41.80443 -71.50923 2004 ft 166 kts 147°
2026-04-23 04:58 41.79529 -71.49958 1815 ft 168 kts 146°
2026-04-23 04:58 41.78645 -71.49020 1669 ft 154 kts 146°
2026-04-23 04:59 41.77844 -71.48174 1507 ft 138 kts 147°
2026-04-23 04:59 41.77143 -71.47430 1314 ft 121 kts 147°
2026-04-23 04:59 41.76482 -71.46734 1162 ft 121 kts 148°
2026-04-23 04:59 41.75817 -71.46030 983 ft 122 kts 147°
2026-04-23 05:00 41.75155 -71.45326 741 ft 121 kts 148°
2026-04-23 05:00 41.74503 -71.44647 514 ft 117 kts 149°
2026-04-23 05:00 41.73851 -71.43977 340 ft 124 kts 142°
2026-04-23 05:00 41.73173 -71.43217 121 ft 132 kts 148°
2026-04-23 05:01 41.72499 -71.42512 50 ft 87 kts 142°
2026-04-23 05:01 41.72219 -71.42214 53 ft 41 kts 142°
2026-04-23 05:01 41.72009 -71.41992 47 ft 36 kts 142°
2026-04-23 05:01 41.71857 -71.41876 50 ft 19 kts 202°
2026-04-23 05:02 41.71886 -71.42007 48 ft 19 kts 321°
2026-04-23 05:02 41.71987 -71.42115 51 ft 18 kts 322°
2026-04-23 05:02 41.72086 -71.42217 54 ft 18 kts 322°
2026-04-23 05:02 41.72179 -71.42317 56 ft 17 kts 318°
2026-04-23 05:03 41.72253 -71.42437 56 ft 16 kts 320°
2026-04-23 05:03 41.72341 -71.42531 56 ft 16 kts 321°
2026-04-23 05:03 41.72424 -71.42623 53 ft 15 kts 314°
2026-04-23 05:03 41.72481 -71.42738 53 ft 15 kts 302°
2026-04-23 05:04 41.72534 -71.42850 56 ft 14 kts 302°
2026-04-23 05:04 41.72555 -71.42969 50 ft 13 kts 265°
2026-04-23 05:04 41.72548 -71.43090 55 ft 13 kts 268°
2026-04-23 05:04 41.72542 -71.43208 58 ft 13 kts 265°
2026-04-23 05:05 41.72564 -71.43314 57 ft 12 kts 323°
2026-04-23 05:05 41.72640 -71.43289 57 ft 12 kts 32°
2026-04-23 05:05 41.72710 -71.43231 60 ft 12 kts 32°
2026-04-23 05:05 41.72777 -71.43175 59 ft 11 kts 29°
2026-04-23 05:06 41.72845 -71.43198 62 ft 11 kts 306°
2026-04-23 05:06 41.72884 -71.43283 60 ft 11 kts 302°
2026-04-23 05:06 41.72889 -71.43372 59 ft 10 kts 234°
2026-04-23 05:06 41.72837 -71.43440 60 ft 10 kts 218°
2026-04-23 05:07 41.72781 -71.43429 53 ft 3 kts 149°
2026-04-23 05:07 41.72773 -71.43422 54 ft 0 kts 149°